Regional Weather Roundup
Issued by NWS

Home | Current Version | Previous Version | Text Only | Print | Product List | Glossary Off
Versions: 1 2 3 4 5 6 7 8 9 10 11 12 13 14 15 16 17 18 19 20 21 22 23 24 25 26 27 28 29 30 31 32 33 34 35 36 37 38 39 40 41 42 43 44 45 46 47 48 49 50

000
ASUS44 KMEG 232210
RWRTN
TENNESSEE HOURLY STATE WEATHER ROUNDUP
NATIONAL WEATHER SERVICE MEMPHIS TN
500 PM CDT SAT MAY 23 2015

TNZ002-004-019-021-049-052-054-088>092-232300-
WEST TENNESSEE

CITY           SKY/WX    TMP DP  RH WIND       PRES   REMARKS
MEMPHIS INTL   PTSUNNY   84  55  36 SE8       30.18F
NWS MEMPHIS      N/A     82 N/A N/A MISG        N/A
JACKSON        SUNNY     81  56  42 VRB6      30.20F
DYERSBURG      SUNNY     81  48  32 SE8       30.20F
PARIS          SUNNY     77  52  41 E9        30.23F
LEXINGTON      SUNNY     81  55  41 SE7       30.21F
$$

TNZ008-025-027-028-033-062-065-066-232300-
NORTH MIDDLE TENNESSEE

CITY           SKY/WX    TMP DP  RH WIND       PRES   REMARKS
NASHVILLE      PTSUNNY   82  54  37 S9        30.25F
CLARKSVILLE    MOSUNNY   78  53  41 SE9       30.24F
SMYRNA         MOSUNNY   81  56  42 S6        30.26F
COOKEVILLE     MOSUNNY   79  55  44 S3        30.28S
CROSSVILLE     PTSUNNY   75  50  41 S6        30.33F
$$

TNZ061-075-076-078-094-096-097-232300-
SOUTH MIDDLE TENNESSEE

CITY           SKY/WX    TMP DP  RH WIND       PRES   REMARKS
FAYETTEVILLE   SUNNY    N/A N/A N/A MISG      30.26S
TULLAHOMA      SUNNY     79  48  34 SE8       30.29R
WINCHESTER     SUNNY     81  55  41 S10       30.27F
MCMINNVILLE    SUNNY     81  55  41 SE9       30.28S
COLUMBIA       SUNNY     82  57  42 VRB3      30.23S
SHELBYVILLE    SUNNY     82  57  42 VRB5      30.27S
$$

TNZ017-018-042-046-047-232300-
NORTHEAST TENNESSEE

CITY           SKY/WX    TMP DP  RH WIND       PRES   REMARKS
TRI CITIES     MOSUNNY   79  44  28 S5        30.33F
ELIZABETHTON   CLEAR     79  43  27 NW3       30.33F
$$

TNZ012-013-036-069-073-074-232300-
CENTRAL EAST TENNESSEE

CITY           SKY/WX    TMP DP  RH WIND       PRES   REMARKS
KNOXVILLE      MOSUNNY   80  53  39 NW8       30.29F
OAK RIDGE      PTSUNNY   81  51  35 S6        30.31F
GATLINBURG     CLEAR     79  52  38 NE6       30.29F
MORRISTOWN     CLEAR     77  52  41 NW5       30.33S
$$

TNZ083-085-099-232300-
SOUTHEAST TENNESSEE

CITY           SKY/WX    TMP DP  RH WIND       PRES   REMARKS
CHATTANOOGA    MOSUNNY   82  48  30 VRB7      30.28F
$$

SKY/WX REPORTED AS FAIR MEANS FEW OR NO CLOUDS BELOW
12 THOUSAND FEET.




USA.gov is the U.S. government's official web portal to all federal, state and local government web resources and services.